| time (UTC) | temp F | wind direction | speed knots | gust knots | rain 1hr in | rain 24hr in | rain mn in | humidity % | barometer mb |
| 20260906225158 | 75 | 89 | 3.5 | 12.2 | 0.00 | 0.00 | 0.00 | 99 | 753.0 |
| 20260906224659 | 76 | 112 | 5.2 | 13.0 | 0.00 | 0.00 | 0.00 | 99 | 753.0 |
| 20260906224158 | 76 | 52 | 3.5 | 5.2 | 0.00 | 0.00 | 0.00 | 99 | 753.0 |
| 20260906223658 | 77 | 87 | 2.6 | 6.1 | 0.00 | 0.00 | 0.00 | 99 | 753.0 |
| 20260906223158 | 77 | 52 | 9.6 | 12.2 | 0.00 | 0.00 | 0.00 | 99 | 753.0 |
| 20260906222658 | 76 | 89 | 7.0 | 8.7 | 0.00 | 0.00 | 0.00 | 99 | 753.0 |
| 20260906222158 | 76 | 76 | 4.3 | 7.8 | 0.00 | 0.00 | 0.00 | 99 | 753.0 |
| 20260906221700 | 75 | 40 | 4.3 | 7.8 | 0.00 | 0.00 | 0.00 | 99 | 753.0 |
| 20260906221158 | 74 | 111 | 5.2 | 9.6 | 0.00 | 0.00 | 0.00 | 99 | 753.0 |
| 20260906220700 | 75 | 100 | 7.8 | 9.6 | 0.00 | 0.00 | 0.00 | 99 | 753.0 |
| 20260906220158 | 74 | 62 | 2.6 | 9.6 | 0.00 | 0.00 | 0.00 | 99 | 753.0 |
| 20260906215658 | 74 | 74 | 7.0 | 12.2 | 0.00 | 0.00 | 0.00 | 99 | 753.0 |
| 20260906215158 | 74 | 123 | 5.2 | 11.3 | 0.00 | 0.00 | 0.00 | 99 | 753.0 |
| 20260906214658 | 75 | 94 | 6.1 | 13.0 | 0.00 | 0.00 | 0.00 | 99 | 753.0 |
| 20260906214159 | 75 | 92 | 5.2 | 12.2 | 0.00 | 0.00 | 0.00 | 99 | 754.0 |
| 20260906213658 | 74 | 91 | 7.8 | 13.0 | 0.00 | 0.00 | 0.00 | 99 | 754.0 |
| 20260906213158 | 74 | 72 | 3.5 | 12.2 | 0.00 | 0.00 | 0.00 | 99 | 754.0 |
| 20260906212658 | 75 | 166 | 6.1 | 13.0 | 0.00 | 0.00 | 0.00 | 99 | 754.0 |
| 20260906212158 | 77 | 63 | 8.7 | 15.6 | 0.00 | 0.00 | 0.00 | 99 | 754.0 |
| 20260906211658 | 74 | 99 | 3.5 | 13.9 | 0.00 | 0.00 | 0.00 | 99 | 753.0 |
| 20260906211158 | 74 | 37 | 9.6 | 15.6 | 0.00 | 0.00 | 0.00 | 99 | 754.0 |
| 20260906210658 | 75 | 107 | 5.2 | 11.3 | 0.00 | 0.00 | 0.00 | 99 | 754.0 |
| 20260906210158 | 76 | 90 | 6.1 | 12.2 | 0.00 | 0.00 | 0.00 | 99 | 754.0 |
| 20260906205700 | 76 | 90 | 12.2 | 15.6 | 0.00 | 0.00 | 0.00 | 99 | 754.0 |
| 20260906205159 | 76 | 88 | 11.3 | 18.2 | 0.00 | 0.00 | 0.00 | 99 | 754.0 |
| 20260906204700 | 75 | 79 | 3.5 | 8.7 | 0.00 | 0.00 | 0.00 | 99 | 754.0 |
| 20260906204158 | 75 | 52 | 10.4 | 13.9 | 0.00 | 0.00 | 0.00 | 99 | 754.0 |
| 20260906203658 | 75 | 89 | 10.4 | 13.9 | 0.00 | 0.00 | 0.00 | 99 | 754.0 |
| 20260906203158 | 76 | 114 | 3.5 | 13.9 | 0.00 | 0.00 | 0.00 | 99 | 754.0 |
| 20260906202658 | 75 | 48 | 9.6 | 12.2 | 0.00 | 0.00 | 0.00 | 99 | 754.0 |
| 20260906202158 | 74 | 43 | 7.8 | 13.9 | 0.00 | 0.00 | 0.00 | 99 | 754.0 |
| 20260906201658 | 75 | 70 | 7.8 | 13.0 | 0.00 | 0.00 | 0.00 | 99 | 754.0 |
| 20260906201158 | 76 | 310 | 2.6 | 14.8 | 0.00 | 0.00 | 0.00 | 99 | 754.0 |
| 20260906200659 | 75 | 62 | 6.1 | 12.2 | 0.00 | 0.00 | 0.00 | 99 | 754.0 |
| 20260906200158 | 74 | 351 | 4.3 | 13.9 | 0.00 | 0.00 | 0.00 | 99 | 754.0 |
| 20260906195658 | 74 | 92 | 7.0 | 9.6 | 0.00 | 0.00 | 0.00 | 99 | 754.0 |
| 20260906195158 | 75 | 55 | 7.0 | 13.0 | 0.00 | 0.00 | 0.00 | 99 | 754.0 |
| 20260906194701 | 77 | 42 | 4.3 | 13.9 | 0.00 | 0.00 | 0.00 | 99 | 754.0 |
| 20260906194159 | 76 | 61 | 3.5 | 14.8 | 0.00 | 0.00 | 0.00 | 99 | 754.0 |
| 20260906193658 | 76 | 50 | 2.6 | 14.8 | 0.00 | 0.00 | 0.00 | 99 | 754.0 |
| 20260906193158 | 76 | 54 | 6.1 | 8.7 | 0.00 | 0.00 | 0.00 | 99 | 754.0 |
| 20260906192658 | 75 | 82 | 1.7 | 5.2 | 0.00 | 0.00 | 0.00 | 99 | 754.0 |
| 20260906192158 | 76 | 79 | 5.2 | 11.3 | 0.00 | 0.00 | 0.00 | 99 | 754.0 |
| 20260906191658 | 77 | 9 | 8.7 | 13.9 | 0.00 | 0.00 | 0.00 | 99 | 754.0 |
| 20260906191158 | 76 | 68 | 3.5 | 8.7 | 0.00 | 0.00 | 0.00 | 99 | 754.0 |
| 20260906190658 | 76 | 66 | 6.1 | 7.0 | 0.00 | 0.00 | 0.00 | 99 | 754.0 |
| 20260906190202 | 76 | 54 | 7.0 | 13.0 | 0.00 | 0.00 | 0.00 | 99 | 754.0 |
| 20260906185659 | 77 | 53 | 6.1 | 9.6 | 0.00 | 0.00 | 0.00 | 99 | 754.0 |
| 20260906185158 | 76 | 13 | 3.5 | 11.3 | 0.00 | 0.00 | 0.00 | 99 | 754.0 |
| 20260906184700 | 75 | 128 | 7.0 | 8.7 | 0.00 | 0.00 | 0.00 | 99 | 754.0 |
| 20260906184158 | 75 | 88 | 8.7 | 15.6 | 0.00 | 0.00 | 0.00 | 99 | 754.0 |
| 20260906183659 | 77 | 180 | 2.6 | 7.0 | 0.00 | 0.00 | 0.00 | 99 | 754.0 |
| 20260906183159 | 77 | 13 | 4.3 | 7.0 | 0.00 | 0.00 | 0.00 | 99 | 755.0 |
| 20260906182659 | 75 | 70 | 3.5 | 7.8 | 0.00 | 0.00 | 0.00 | 99 | 754.0 |
| 20260906182158 | 74 | 61 | 7.8 | 9.6 | 0.00 | 0.00 | 0.00 | 99 | 755.0 |
| 20260906181658 | 74 | 141 | 6.1 | 12.2 | 0.00 | 0.00 | 0.00 | 99 | 755.0 |
| 20260906181158 | 75 | 55 | 4.3 | 8.7 | 0.00 | 0.00 | 0.00 | 99 | 755.0 |
| 20260906180659 | 75 | 50 | 2.6 | 7.0 | 0.00 | 0.00 | 0.00 | 99 | 755.0 |
| 20260906180158 | 75 | 98 | 9.6 | 11.3 | 0.00 | 0.00 | 0.00 | 99 | 755.0 |
| 20260906175659 | 75 | 76 | 6.1 | 9.6 | 0.00 | 0.00 | 0.00 | 99 | 755.0 |
| 20260906175158 | 75 | 109 | 0.9 | 8.7 | 0.00 | 0.00 | 0.00 | 99 | 755.0 |
| 20260906174658 | 74 | 85 | 2.6 | 7.0 | 0.00 | 0.00 | 0.00 | 99 | 755.0 |
| 20260906174158 | 74 | 92 | 10.4 | 12.2 | 0.00 | 0.00 | 0.00 | 99 | 755.0 |
| 20260906173659 | 73 | 177 | 3.5 | 7.0 | 0.00 | 0.00 | 0.00 | 99 | 756.0 |
| 20260906173200 | 72 | 52 | 7.0 | 12.2 | 0.00 | 0.00 | 0.00 | 99 | 756.0 |
| 20260906172659 | 71 | 88 | 9.6 | 13.0 | 0.00 | 0.00 | 0.00 | 99 | 756.0 |
| 20260906172159 | 72 | 141 | 9.6 | 11.3 | 0.00 | 0.00 | 0.00 | 99 | 756.0 |
| 20260906171658 | 72 | 74 | 6.1 | 8.7 | 0.00 | 0.00 | 0.00 | 99 | 756.0 |
| 20260906171159 | 73 | 101 | 7.0 | 13.0 | 0.00 | 0.00 | 0.00 | 99 | 756.0 |
| 20260906170658 | 74 | 29 | 2.6 | 6.1 | 0.00 | 0.00 | 0.00 | 99 | 756.0 |
| 20260906170158 | 72 | 220 | 2.6 | 7.8 | 0.00 | 0.00 | 0.00 | 99 | 756.0 |
| 20260906165658 | 73 | 42 | 3.5 | 7.0 | 0.00 | 0.00 | 0.00 | 99 | 756.0 |
| 20260906165158 | 73 | 120 | 3.5 | 5.2 | 0.00 | 0.00 | 0.00 | 99 | 756.0 |
| 20260906164659 | 72 | 136 | 6.1 | 7.8 | 0.00 | 0.00 | 0.00 | 99 | 756.0 |
| 20260906164158 | 72 | 98 | 1.7 | 8.7 | 0.00 | 0.00 | 0.00 | 99 | 756.0 |
| 20260906163658 | 73 | 98 | 7.8 | 9.6 | 0.00 | 0.00 | 0.00 | 99 | 756.0 |
| 20260906163158 | 71 | 84 | 7.8 | 11.3 | 0.00 | 0.00 | 0.00 | 99 | 756.0 |
| 20260906162658 | 73 | 359 | 3.5 | 7.0 | 0.00 | 0.00 | 0.00 | 99 | 756.0 |
| 20260906162158 | 73 | 57 | 2.6 | 6.1 | 0.00 | 0.00 | 0.00 | 99 | 756.0 |
| 20260906161658 | 71 | 71 | 2.6 | 7.8 | 0.00 | 0.00 | 0.00 | 99 | 756.0 |
| 20260906161159 | 71 | 120 | 5.2 | 7.0 | 0.00 | 0.00 | 0.00 | 99 | 756.0 |
| 20260906160658 | 71 | 108 | 6.1 | 7.8 | 0.00 | 0.00 | 0.00 | 99 | 756.0 |
| 20260906160159 | 72 | 144 | 1.7 | 7.8 | 0.00 | 0.00 | 0.00 | 99 | 756.0 |
| 20260906155658 | 71 | 52 | 2.6 | 6.1 | 0.00 | 0.00 | 0.00 | 99 | 756.0 |
| 20260906155158 | 71 | 49 | 2.6 | 5.2 | 0.00 | 0.00 | 0.00 | 99 | 756.0 |
| 20260906154658 | 70 | 136 | 3.5 | 7.0 | 0.00 | 0.00 | 0.00 | 99 | 756.0 |
| 20260906154202 | 70 | 25 | 0.9 | 5.2 | 0.00 | 0.00 | 0.00 | 99 | 755.0 |
| 20260906153658 | 71 | 122 | 3.5 | 5.2 | 0.00 | 0.00 | 0.00 | 99 | 755.0 |
| 20260906153158 | 69 | 193 | 0.9 | 2.6 | 0.00 | 0.00 | 0.00 | 99 | 756.0 |
| 20260906152658 | 69 | 233 | 2.6 | 2.6 | 0.00 | 0.00 | 0.00 | 99 | 756.0 |
| 20260906152158 | 69 | 231 | 0.0 | 1.7 | 0.00 | 0.00 | 0.00 | 99 | 756.0 |
| 20260906151658 | 68 | 218 | 1.7 | 2.6 | 0.00 | 0.00 | 0.00 | 99 | 755.0 |
| 20260906151158 | 72 | 147 | 0.0 | 2.6 | 0.00 | 0.00 | 0.00 | 99 | 755.0 |
| 20260906150658 | 71 | 203 | 0.0 | 0.9 | 0.00 | 0.00 | 0.00 | 99 | 755.0 |
| 20260906150158 | 71 | 139 | 1.7 | 2.6 | 0.00 | 0.00 | 0.00 | 99 | 755.0 |
| 20260906145658 | 69 | 173 | 0.9 | 1.7 | 0.00 | 0.00 | 0.00 | 99 | 755.0 |
| 20260906145158 | 65 | 189 | 0.0 | 0.9 | 0.00 | 0.00 | 0.00 | 99 | 756.0 |
| 20260906144658 | 63 | 212 | 2.6 | 4.3 | 0.00 | 0.00 | 0.00 | 99 | 756.0 |
| 20260906144158 | 66 | 205 | 0.9 | 0.9 | 0.00 | 0.00 | 0.00 | 99 | 756.0 |
| 20260906143658 | 63 | 187 | 0.0 | 0.0 | 0.00 | 0.00 | 0.00 | 99 | 756.0 |
| 20260906143159 | 60 | 192 | 0.9 | 1.7 | 0.00 | 0.00 | 0.00 | 99 | 755.0 |
| 20260906142658 | 59 | 223 | 1.7 | 4.3 | 0.00 | 0.00 | 0.00 | 99 | 756.0 |
| 20260906142158 | 59 | 206 | 1.7 | 4.3 | 0.00 | 0.00 | 0.00 | 99 | 755.0 |
| 20260906141659 | 58 | 216 | 2.6 | 2.6 | 0.00 | 0.00 | 0.00 | 99 | 756.0 |
| 20260906141158 | 56 | 227 | 3.5 | 5.2 | 0.00 | 0.00 | 0.00 | 99 | 755.0 |
| 20260906140658 | 56 | 232 | 4.3 | 5.2 | 0.00 | 0.00 | 0.00 | 99 | 756.0 |
| 20260906140158 | 56 | 227 | 3.5 | 4.3 | 0.00 | 0.00 | 0.00 | 99 | 755.0 |
| 20260906135658 | 57 | 228 | 2.6 | 4.3 | 0.00 | 0.00 | 0.00 | 99 | 755.0 |
| 20260906135158 | 58 | 239 | 0.9 | 1.7 | 0.00 | 0.00 | 0.00 | 99 | 755.0 |
| 20260906134658 | 58 | 237 | 1.7 | 2.6 | 0.00 | 0.00 | 0.00 | 99 | 755.0 |
| 20260906134157 | 58 | 246 | 2.6 | 4.3 | 0.00 | 0.00 | 0.00 | 99 | 755.0 |
| 20260906133658 | 58 | 236 | 2.6 | 2.6 | 0.00 | 0.00 | 0.00 | 99 | 755.0 |
| 20260906133159 | 57 | 262 | 2.6 | 4.3 | 0.00 | 0.00 | 0.00 | 99 | 755.0 |
| 20260906132658 | 57 | 225 | 2.6 | 2.6 | 0.00 | 0.00 | 0.00 | 99 | 755.0 |
| 20260906132200 | 56 | 261 | 1.7 | 2.6 | 0.00 | 0.00 | 0.00 | 99 | 755.0 |
| 20260906131658 | 56 | 229 | 2.6 | 2.6 | 0.00 | 0.00 | 0.00 | 99 | 755.0 |
| 20260906131158 | 55 | 220 | 0.9 | 1.7 | 0.00 | 0.00 | 0.00 | 99 | 755.0 |
| 20260906130658 | 55 | 251 | 2.6 | 4.3 | 0.00 | 0.00 | 0.00 | 99 | 755.0 |
| 20260906130158 | 55 | 228 | 1.7 | 2.6 | 0.00 | 0.00 | 0.00 | 99 | 755.0 |
| 20260906125658 | 56 | 235 | 3.5 | 4.3 | 0.00 | 0.00 | 0.00 | 99 | 755.0 |
| 20260906125158 | 55 | 231 | 1.7 | 1.7 | 0.00 | 0.00 | 0.00 | 99 | 755.0 |
| 20260906124658 | 54 | 238 | 1.7 | 2.6 | 0.00 | 0.00 | 0.00 | 99 | 755.0 |
| 20260906124158 | 54 | 226 | 2.6 | 2.6 | 0.00 | 0.00 | 0.00 | 99 | 755.0 |
| 20260906123658 | 53 | 244 | 1.7 | 2.6 | 0.00 | 0.00 | 0.00 | 99 | 755.0 |
| 20260906123158 | 54 | 260 | 2.6 | 5.2 | 0.00 | 0.00 | 0.00 | 99 | 755.0 |
| 20260906122658 | 55 | 238 | 2.6 | 4.3 | 0.00 | 0.00 | 0.00 | 99 | 755.0 |
| 20260906122158 | 55 | 237 | 3.5 | 4.3 | 0.00 | 0.00 | 0.00 | 99 | 755.0 |
| 20260906121658 | 54 | 217 | 1.7 | 2.6 | 0.00 | 0.00 | 0.00 | 99 | 755.0 |
| 20260906121158 | 53 | 212 | 3.5 | 4.3 | 0.00 | 0.00 | 0.00 | 99 | 755.0 |
| 20260906120659 | 53 | 232 | 4.3 | 5.2 | 0.00 | 0.00 | 0.00 | 99 | 755.0 |
| 20260906120158 | 53 | 227 | 4.3 | 5.2 | 0.00 | 0.00 | 0.00 | 99 | 755.0 |
| 20260906115659 | 53 | 227 | 3.5 | 5.2 | 0.00 | 0.00 | 0.00 | 99 | 755.0 |
| 20260906115158 | 54 | 231 | 4.3 | 5.2 | 0.00 | 0.00 | 0.00 | 99 | 755.0 |
| 20260906114658 | 54 | 230 | 4.3 | 5.2 | 0.00 | 0.00 | 0.00 | 99 | 755.0 |
| 20260906114158 | 53 | 224 | 4.3 | 4.3 | 0.00 | 0.00 | 0.00 | 99 | 755.0 |
| 20260906113658 | 54 | 218 | 2.6 | 4.3 | 0.00 | 0.00 | 0.00 | 99 | 755.0 |
| 20260906113159 | 54 | 230 | 2.6 | 2.6 | 0.00 | 0.00 | 0.00 | 99 | 755.0 |
| 20260906112658 | 53 | 236 | 0.9 | 1.7 | 0.00 | 0.00 | 0.00 | 99 | 755.0 |
| 20260906112158 | 53 | 234 | 0.0 | 0.9 | 0.00 | 0.00 | 0.00 | 99 | 755.0 |
| 20260906111658 | 54 | 233 | 0.0 | 1.7 | 0.00 | 0.00 | 0.00 | 99 | 755.0 |
| 20260906111158 | 53 | 233 | 3.5 | 5.2 | 0.00 | 0.00 | 0.00 | 99 | 755.0 |
| 20260906110659 | 53 | 242 | 5.2 | 6.1 | 0.00 | 0.00 | 0.00 | 99 | 755.0 |
| 20260906110158 | 54 | 234 | 6.1 | 7.0 | 0.00 | 0.00 | 0.00 | 99 | 755.0 |
| 20260906105659 | 54 | 216 | 5.2 | 7.0 | 0.00 | 0.00 | 0.00 | 99 | 755.0 |
| 20260906105158 | 54 | 230 | 5.2 | 6.1 | 0.00 | 0.00 | 0.00 | 99 | 755.0 |
| 20260906104658 | 54 | 228 | 4.3 | 5.2 | 0.00 | 0.00 | 0.00 | 99 | 755.0 |
| 20260906104158 | 53 | 231 | 4.3 | 5.2 | 0.00 | 0.00 | 0.00 | 99 | 755.0 |
| 20260906103658 | 53 | 227 | 4.3 | 5.2 | 0.00 | 0.00 | 0.00 | 99 | 755.0 |
| 20260906103158 | 54 | 242 | 3.5 | 5.2 | 0.00 | 0.00 | 0.00 | 99 | 755.0 |
| 20260906102658 | 55 | 202 | 4.3 | 6.1 | 0.00 | 0.00 | 0.00 | 99 | 755.0 |
| 20260906102158 | 55 | 224 | 4.3 | 4.3 | 0.00 | 0.00 | 0.00 | 99 | 755.0 |
| 20260906101658 | 55 | 229 | 4.3 | 6.1 | 0.00 | 0.00 | 0.00 | 99 | 755.0 |
| 20260906101158 | 56 | 229 | 3.5 | 4.3 | 0.00 | 0.00 | 0.00 | 99 | 755.0 |
| 20260906100700 | 55 | 216 | 3.5 | 4.3 | 0.00 | 0.00 | 0.00 | 99 | 755.0 |
| 20260906100158 | 55 | 233 | 2.6 | 4.3 | 0.00 | 0.00 | 0.00 | 99 | 755.0 |
| 20260906095658 | 53 | 232 | 2.6 | 5.2 | 0.00 | 0.00 | 0.00 | 99 | 755.0 |
| 20260906095158 | 53 | 232 | 4.3 | 5.2 | 0.00 | 0.00 | 0.00 | 99 | 755.0 |
| 20260906094658 | 53 | 245 | 2.6 | 4.3 | 0.00 | 0.00 | 0.00 | 99 | 755.0 |
| 20260906094158 | 53 | 219 | 1.7 | 4.3 | 0.00 | 0.00 | 0.00 | 99 | 755.0 |
| 20260906093658 | 53 | 217 | 4.3 | 6.1 | 0.00 | 0.00 | 0.00 | 99 | 755.0 |
| 20260906093158 | 53 | 230 | 4.3 | 6.1 | 0.00 | 0.00 | 0.00 | 99 | 755.0 |
| 20260906092658 | 53 | 227 | 5.2 | 6.1 | 0.00 | 0.00 | 0.00 | 99 | 755.0 |
| 20260906092158 | 53 | 238 | 4.3 | 5.2 | 0.00 | 0.00 | 0.00 | 99 | 755.0 |
| 20260906091658 | 53 | 251 | 3.5 | 6.1 | 0.00 | 0.00 | 0.00 | 99 | 755.0 |
| 20260906091158 | 53 | 236 | 4.3 | 5.2 | 0.00 | 0.00 | 0.00 | 99 | 755.0 |
| 20260906090700 | 54 | 232 | 5.2 | 7.0 | 0.00 | 0.00 | 0.00 | 99 | 755.0 |
| 20260906090158 | 54 | 233 | 4.3 | 6.1 | 0.00 | 0.00 | 0.00 | 99 | 755.0 |
| 20260906085659 | 55 | 233 | 4.3 | 6.1 | 0.00 | 0.00 | 0.00 | 99 | 755.0 |
| 20260906085157 | 54 | 223 | 3.5 | 4.3 | 0.00 | 0.00 | 0.00 | 99 | 755.0 |
| 20260906084658 | 53 | 218 | 3.5 | 6.1 | 0.00 | 0.00 | 0.00 | 99 | 755.0 |
| 20260906084158 | 53 | 235 | 4.3 | 5.2 | 0.00 | 0.00 | 0.00 | 99 | 755.0 |
| 20260906083659 | 53 | 223 | 5.2 | 6.1 | 0.00 | 0.00 | 0.00 | 99 | 755.0 |
| 20260906083158 | 53 | 220 | 4.3 | 6.1 | 0.00 | 0.00 | 0.00 | 99 | 755.0 |
| 20260906082658 | 53 | 237 | 5.2 | 6.1 | 0.00 | 0.00 | 0.00 | 99 | 755.0 |
| 20260906082158 | 54 | 225 | 4.3 | 5.2 | 0.00 | 0.00 | 0.00 | 99 | 755.0 |
| 20260906081658 | 54 | 221 | 4.3 | 7.0 | 0.00 | 0.00 | 0.00 | 99 | 755.0 |
| 20260906081158 | 54 | 216 | 6.1 | 7.0 | 0.00 | 0.00 | 0.00 | 99 | 755.0 |
| 20260906080658 | 54 | 216 | 4.3 | 6.1 | 0.00 | 0.00 | 0.00 | 99 | 755.0 |
| 20260906080157 | 55 | 229 | 5.2 | 6.1 | 0.00 | 0.00 | 0.00 | 99 | 755.0 |
| 20260906075658 | 55 | 225 | 3.5 | 6.1 | 0.00 | 0.00 | 0.00 | 99 | 755.0 |
| 20260906075158 | 55 | 204 | 3.5 | 5.2 | 0.00 | 0.00 | 0.00 | 99 | 755.0 |
| 20260906074658 | 55 | 230 | 4.3 | 5.2 | 0.00 | 0.00 | 0.00 | 99 | 755.0 |
| 20260906074158 | 54 | 231 | 4.3 | 5.2 | 0.00 | 0.00 | 0.00 | 99 | 756.0 |
| 20260906073658 | 54 | 223 | 4.3 | 5.2 | 0.00 | 0.00 | 0.00 | 99 | 756.0 |
| 20260906073158 | 54 | 224 | 4.3 | 5.2 | 0.00 | 0.00 | 0.00 | 99 | 756.0 |
| 20260906072658 | 54 | 221 | 4.3 | 5.2 | 0.00 | 0.00 | 0.00 | 99 | 756.0 |
| 20260906072159 | 54 | 214 | 4.3 | 5.2 | 0.00 | 0.00 | 0.00 | 99 | 756.0 |
| 20260906071657 | 54 | 218 | 5.2 | 6.1 | 0.00 | 0.00 | 0.00 | 99 | 756.0 |
| 20260906071158 | 54 | 227 | 4.3 | 4.3 | 0.00 | 0.00 | 0.00 | 99 | 756.0 |
| 20260906070658 | 54 | 223 | 4.3 | 5.2 | 0.00 | 0.00 | 0.00 | 99 | 756.0 |
| 20260906070158 | 54 | 223 | 4.3 | 5.2 | 0.00 | 0.00 | 0.00 | 99 | 755.0 |
| 20260906065658 | 54 | 229 | 4.3 | 6.1 | 0.00 | 0.00 | 0.00 | 99 | 756.0 |
| 20260906065202 | 54 | 237 | 4.3 | 5.2 | 0.00 | 0.00 | 0.00 | 99 | 756.0 |
| 20260906064658 | 54 | 230 | 4.3 | 6.1 | 0.00 | 0.00 | 0.00 | 99 | 756.0 |
| 20260906064158 | 55 | 221 | 4.3 | 6.1 | 0.00 | 0.00 | 0.00 | 99 | 756.0 |
| 20260906063658 | 56 | 240 | 4.3 | 5.2 | 0.00 | 0.00 | 0.00 | 99 | 756.0 |
| 20260906063158 | 56 | 257 | 2.6 | 4.3 | 0.00 | 0.00 | 0.00 | 99 | 756.0 |
| 20260906062658 | 56 | 298 | 2.6 | 5.2 | 0.00 | 0.00 | 0.00 | 99 | 756.0 |
| 20260906062159 | 55 | 277 | 4.3 | 5.2 | 0.00 | 0.00 | 0.00 | 99 | 756.0 |
| 20260906061658 | 55 | 246 | 2.6 | 2.6 | 0.00 | 0.00 | 0.00 | 99 | 756.0 |
| 20260906061158 | 55 | 238 | 4.3 | 5.2 | 0.00 | 0.00 | 0.00 | 99 | 756.0 |
| 20260906060658 | 55 | 235 | 4.3 | 5.2 | 0.00 | 0.00 | 0.00 | 99 | 756.0 |
| 20260906060158 | 55 | 228 | 5.2 | 6.1 | 0.00 | 0.00 | 0.00 | 99 | 756.0 |
| 20260906055658 | 56 | 234 | 4.3 | 5.2 | 0.00 | 0.00 | 0.00 | 99 | 756.0 |
| 20260906055158 | 56 | 237 | 4.3 | 5.2 | 0.00 | 0.00 | 0.00 | 99 | 756.0 |
| 20260906054658 | 56 | 243 | 4.3 | 4.3 | 0.00 | 0.00 | 0.00 | 99 | 756.0 |
| 20260906054159 | 57 | 258 | 2.6 | 2.6 | 0.00 | 0.00 | 0.00 | 99 | 756.0 |
| 20260906053658 | 57 | 236 | 1.7 | 2.6 | 0.00 | 0.00 | 0.00 | 99 | 756.0 |
| 20260906053158 | 57 | 243 | 1.7 | 4.3 | 0.00 | 0.00 | 0.00 | 99 | 756.0 |
| 20260906052658 | 57 | 261 | 2.6 | 2.6 | 0.00 | 0.00 | 0.00 | 99 | 756.0 |
| 20260906052158 | 57 | 273 | 1.7 | 4.3 | 0.00 | 0.00 | 0.00 | 99 | 756.0 |
| 20260906051658 | 57 | 238 | 5.2 | 5.2 | 0.00 | 0.00 | 0.00 | 99 | 756.0 |
| 20260906051158 | 58 | 210 | 4.3 | 5.2 | 0.00 | 0.00 | 0.00 | 99 | 756.0 |
| 20260906050658 | 58 | 221 | 3.5 | 4.3 | 0.00 | 0.00 | 0.00 | 99 | 756.0 |
| 20260906050202 | 58 | 251 | 0.0 | 1.7 | 0.00 | 0.00 | 0.00 | 99 | 756.0 |
| 20260906045659 | 59 | 231 | 3.5 | 6.1 | 0.00 | 0.00 | 0.00 | 99 | 756.0 |
| 20260906045159 | 60 | 221 | 3.5 | 5.2 | 0.00 | 0.00 | 0.00 | 99 | 756.0 |
| 20260906044659 | 60 | 238 | 0.0 | 0.9 | 0.00 | 0.00 | 0.00 | 99 | 756.0 |
| 20260906044159 | 60 | 222 | 2.6 | 4.3 | 0.00 | 0.00 | 0.00 | 99 | 757.0 |
| 20260906043658 | 60 | 231 | 3.5 | 4.3 | 0.00 | 0.00 | 0.00 | 99 | 756.0 |
| 20260906043158 | 60 | 193 | 2.6 | 4.3 | 0.00 | 0.00 | 0.00 | 99 | 756.0 |
| 20260906042658 | 59 | 225 | 2.6 | 2.6 | 0.00 | 0.00 | 0.00 | 99 | 756.0 |
| 20260906042159 | 59 | 233 | 3.5 | 6.1 | 0.00 | 0.00 | 0.00 | 99 | 756.0 |
| 20260906041658 | 59 | 248 | 3.5 | 7.0 | 0.00 | 0.00 | 0.00 | 99 | 756.0 |
| 20260906041158 | 59 | 245 | 2.6 | 7.0 | 0.00 | 0.00 | 0.00 | 99 | 756.0 |
| 20260906040658 | 60 | 220 | 2.6 | 7.0 | 0.00 | 0.00 | 0.00 | 99 | 756.0 |
| 20260906040159 | 60 | 273 | 0.9 | 2.6 | 0.00 | 0.00 | 0.00 | 99 | 756.0 |
| 20260906035659 | 61 | 312 | 0.9 | 4.3 | 0.00 | 0.00 | 0.00 | 99 | 756.0 |
| 20260906035158 | 61 | 285 | 0.9 | 6.1 | 0.00 | 0.00 | 0.00 | 99 | 756.0 |
| 20260906034658 | 62 | 260 | 3.5 | 6.1 | 0.00 | 0.00 | 0.00 | 99 | 756.0 |
| 20260906034158 | 63 | 294 | 2.6 | 7.8 | 0.00 | 0.00 | 0.00 | 99 | 756.0 |
| 20260906033658 | 64 | 201 | 0.0 | 0.0 | 0.00 | 0.00 | 0.00 | 99 | 756.0 |
| 20260906033158 | 64 | 217 | 2.6 | 7.0 | 0.00 | 0.00 | 0.00 | 99 | 756.0 |
| 20260906032658 | 65 | 217 | 1.7 | 2.6 | 0.00 | 0.00 | 0.00 | 99 | 756.0 |
| 20260906032158 | 65 | 229 | 0.0 | 1.7 | 0.00 | 0.00 | 0.00 | 99 | 756.0 |
| 20260906031658 | 65 | 220 | 0.0 | 1.7 | 0.00 | 0.00 | 0.00 | 99 | 756.0 |
| 20260906031158 | 66 | 284 | 3.5 | 4.3 | 0.00 | 0.00 | 0.00 | 99 | 755.0 |
| 20260906030657 | 66 | 326 | 1.7 | 2.6 | 0.00 | 0.00 | 0.00 | 99 | 755.0 |
| 20260906030158 | 67 | 359 | 0.9 | 2.6 | 0.00 | 0.00 | 0.00 | 99 | 755.0 |
| 20260906025658 | 67 | 64 | 0.0 | 0.9 | 0.00 | 0.00 | 0.00 | 99 | 755.0 |
| 20260906025158 | 67 | 45 | 0.0 | 1.7 | 0.00 | 0.00 | 0.00 | 99 | 755.0 |
| 20260906024658 | 67 | 21 | 0.0 | 0.0 | 0.00 | 0.00 | 0.00 | 99 | 755.0 |
| 20260906024158 | 67 | 169 | 0.0 | 0.0 | 0.00 | 0.00 | 0.00 | 99 | 755.0 |
| 20260906023658 | 67 | 64 | 0.0 | 0.0 | 0.00 | 0.00 | 0.00 | 99 | 755.0 |
| 20260906023158 | 67 | 10 | 0.9 | 0.9 | 0.00 | 0.00 | 0.00 | 99 | 755.0 |
| 20260906022658 | 67 | 41 | 1.7 | 2.6 | 0.00 | 0.00 | 0.00 | 99 | 755.0 |
| 20260906022159 | 67 | 28 | 0.9 | 1.7 | 0.00 | 0.00 | 0.00 | 99 | 755.0 |
| 20260906021658 | 67 | 45 | 0.0 | 0.0 | 0.00 | 0.00 | 0.00 | 99 | 755.0 |
| 20260906021158 | 68 | 71 | 0.0 | 0.0 | 0.00 | 0.00 | 0.00 | 99 | 755.0 |
| 20260906020658 | 68 | 49 | 0.0 | 0.0 | 0.00 | 0.00 | 0.00 | 99 | 755.0 |
| 20260906020158 | 68 | 111 | 1.7 | 2.6 | 0.00 | 0.00 | 0.00 | 99 | 755.0 |
| 20260906015658 | 68 | 78 | 0.9 | 1.7 | 0.00 | 0.00 | 0.00 | 99 | 755.0 |
| 20260906015158 | 68 | 50 | 0.0 | 0.0 | 0.00 | 0.00 | 0.00 | 99 | 755.0 |
| 20260906014658 | 68 | 62 | 0.0 | 1.7 | 0.00 | 0.00 | 0.00 | 99 | 755.0 |
| 20260906014158 | 68 | 85 | 0.9 | 1.7 | 0.00 | 0.00 | 0.00 | 99 | 755.0 |
| 20260906013658 | 69 | 56 | 2.6 | 2.6 | 0.00 | 0.00 | 0.00 | 99 | 755.0 |
| 20260906013218 | 69 | 105 | 0.0 | 0.9 | 0.00 | 0.00 | 0.00 | 99 | 755.0 |
| 20260906012658 | 69 | 149 | 0.0 | 0.0 | 0.00 | 0.00 | 0.00 | 99 | 755.0 |
| 20260906012158 | 70 | 83 | 0.9 | 1.7 | 0.00 | 0.00 | 0.00 | 99 | 755.0 |
| 20260906011657 | 70 | 108 | 0.0 | 0.0 | 0.00 | 0.00 | 0.00 | 99 | 755.0 |
| 20260906011158 | 70 | 144 | 0.0 | 1.7 | 0.00 | 0.00 | 0.00 | 99 | 755.0 |
| 20260906010658 | 71 | 139 | 0.0 | 1.7 | 0.00 | 0.00 | 0.00 | 99 | 755.0 |
| 20260906010158 | 71 | 91 | 1.7 | 5.2 | 0.00 | 0.00 | 0.00 | 99 | 755.0 |
| 20260906005658 | 72 | 185 | 2.6 | 2.6 | 0.00 | 0.00 | 0.00 | 99 | 755.0 |
| 20260906005158 | 72 | 79 | 0.9 | 4.3 | 0.00 | 0.00 | 0.00 | 99 | 755.0 |
| 20260906004657 | 72 | 154 | 1.7 | 1.7 | 0.00 | 0.00 | 0.00 | 99 | 755.0 |
| 20260906004158 | 73 | 89 | 4.3 | 6.1 | 0.00 | 0.00 | 0.00 | 99 | 755.0 |
| 20260906003658 | 73 | 53 | 0.0 | 0.0 | 0.00 | 0.00 | 0.00 | 99 | 755.0 |
| 20260906003158 | 73 | 114 | 4.3 | 7.0 | 0.00 | 0.00 | 0.00 | 99 | 755.0 |
| 20260906002658 | 73 | 83 | 4.3 | 7.0 | 0.00 | 0.00 | 0.00 | 99 | 755.0 |
| 20260906002158 | 73 | 79 | 5.2 | 7.8 | 0.00 | 0.00 | 0.00 | 99 | 755.0 |
| 20260906001658 | 73 | 142 | 0.0 | 0.9 | 0.00 | 0.00 | 0.00 | 99 | 755.0 |
| 20260906001158 | 73 | 80 | 6.1 | 7.0 | 0.00 | 0.00 | 0.00 | 99 | 755.0 |
| 20260906000658 | 74 | 74 | 5.2 | 7.8 | 0.00 | 0.00 | 0.00 | 99 | 755.0 |
| 20260906000159 | 74 | 109 | 8.7 | 11.3 | 0.00 | 0.00 | 0.00 | 99 | 755.0 |
| 20260905235657 | 74 | 84 | 4.3 | 7.8 | 0.00 | 0.00 | 0.00 | 99 | 755.0 |
| 20260905235158 | 74 | 86 | 2.6 | 11.3 | 0.00 | 0.00 | 0.00 | 99 | 755.0 |
| 20260905234658 | 74 | 150 | 4.3 | 8.7 | 0.00 | 0.00 | 0.00 | 99 | 755.0 |
| 20260905234158 | 74 | 92 | 1.7 | 7.8 | 0.00 | 0.00 | 0.00 | 99 | 755.0 |
| 20260905233658 | 73 | 45 | 2.6 | 7.0 | 0.00 | 0.00 | 0.00 | 99 | 755.0 |
| 20260905233158 | 74 | 109 | 5.2 | 7.0 | 0.00 | 0.00 | 0.00 | 99 | 755.0 |
| 20260905232658 | 75 | 149 | 6.1 | 11.3 | 0.00 | 0.00 | 0.00 | 99 | 755.0 |
| 20260905232158 | 76 | 54 | 2.6 | 7.8 | 0.00 | 0.00 | 0.00 | 99 | 754.0 |
| 20260905231659 | 76 | 91 | 3.5 | 6.1 | 0.00 | 0.00 | 0.00 | 99 | 755.0 |
| 20260905231158 | 76 | 97 | 7.8 | 12.2 | 0.00 | 0.00 | 0.00 | 99 | 755.0 |
| 20260905230702 | 75 | 132 | 1.7 | 7.0 | 0.00 | 0.00 | 0.00 | 99 | 754.0 |
| 20260905230158 | 76 | 87 | 3.5 | 7.8 | 0.00 | 0.00 | 0.00 | 99 | 755.0 |
| 20260905225658 | 75 | 21 | 3.5 | 5.2 | 0.00 | 0.00 | 0.00 | 99 | 754.0 |